Temp
70 73 70 70 57 51 46 54 58 64 68 72 75 75 75 81 75 66 76 82 77 78 76 77 79 79 79 79 79 79 78 78 78 78 78 78 78 78 78 78 78 79 79 79 79 79 79 79 78
71 76 72 62 50 44 48 57 59 65 71 75 76 79 75 75 82 76 77 79 80 78 76 76 79 79 79 79 79 78 78 78 78 78 78 78 78 78 78 78 78 79 79 79 79 79 79 79 78
75 76 65 57 47 47 52 62 63 70 75 74 72 81 80 79 82 79 82 79 80 77 77 76 79 78 79 79 78 78 78 78 78 78 78 78 78 77 77 77 78 79 80 80 79 79 79 78 78
74 70 62 51 51 58 61 66 67 71 76 75 77 74 83 86 81 84 82 80 78 76 77 78 78 78 79 79 78 78 78 78 78 78 78 78 78 77 77 77 78 79 79 80 79 79 78 78 77
71 64 54 48 54 60 68 70 69 69 70 74 75 74 75 84 84 81 81 81 78 75 76 77 78 78 79 79 78 78 78 78 78 78 78 78 77 77 77 77 78 78 79 79 79 78 78 77 77
64 61 47 49 59 65 68 72 69 68 71 76 74 74 77 81 79 81 82 82 81 76 75 76 78 78 78 78 78 77 77 77 77 77 77 77 77 77 77 77 77 78 78 78 78 78 77 76 76
61 56 52 55 59 62 68 73 67 68 70 73 79 73 77 78 81 80 79 79 79 77 75 75 75 77 78 78 77 77 77 77 77 77 77 77 77 77 77 77 77 77 77 77 77 77 76 76 75
65 58 52 55 60 59 70 71 70 70 73 82 83 73 72 78 81 79 75 73 72 72 74 73 72 74 73 74 77 77 76 76 76 76 76 76 76 76 76 75 76 77 77 77 77 76 76 75 75
69 51 48 55 58 61 68 66 71 77 75 77 80 79 81 81 80 76 73 70 69 72 68 70 71 71 71 71 75 77 77 77 76 76 76 75 73 73 74 74 75 77 77 77 76 76 75 75 75
60 48 54 64 66 64 69 66 70 72 72 72 76 82 83 84 80 76 75 74 70 70 68 70 70 70 70 75 71 71 72 73 73 73 72 72 69 69 71 73 76 76 76 76 76 75 75 75 68
58 54 62 66 68 69 68 69 74 70 68 71 72 76 81 80 80 80 77 78 77 76 73 70 71 70 70 73 70 70 70 69 69 69 69 68 67 67 69 67 69 68 74 68 72 71 70 68 67
51 61 64 65 70 68 66 71 70 72 72 78 79 79 79 79 79 80 80 77 78 76 75 73 73 73 70 72 71 71 70 69 68 68 67 66 65 64 65 66 65 66 66 66 66 66 67 67 67
52 57 62 63 64 65 68 67 68 70 77 81 81 80 77 77 76 78 79 80 81 79 77 74 74 74 73 71 72 70 69 70 69 67 67 66 65 65 64 65 64 64 64 65 64 65 66 66 66
54 54 57 61 62 64 64 66 69 73 76 78 78 77 77 76 76 75 77 77 75 80 78 77 73 73 73 72 71 71 70 70 67 67 68 68 67 66 64 63 64 63 65 65 65 64 65 65 65
53 49 54 59 61 60 66 59 63 73 75 74 76 77 78 76 77 76 76 75 75 76 79 77 75 73 72 70 71 71 72 70 70 70 68 69 68 65 64 63 63 66 66 65 64 63 63 63 65
47 44 39 52 57 61 61 52 65 70 70 70 72 75 77 76 77 77 76 78 75 73 73 78 81 75 75 75 72 75 72 71 72 70 69 69 68 66 64 64 65 65 64 64 65 63 61 62 62
42 36 39 48 57 57 55 49 62 67 66 65 67 70 72 70 72 73 74 76 77 75 72 72 76 75 75 75 75 75 73 72 72 69 69 69 69 68 67 67 67 65 64 64 65 63 64 61 61
38 38 42 43 52 54 51 53 58 63 65 63 64 66 68 71 71 73 74 74 74 75 73 71 73 75 77 77 77 72 71 72 69 71 70 69 70 70 68 67 66 66 63 63 63 63 63 62 63
46 43 42 48 54 50 49 51 56 59 60 60 62 63 64 66 72 74 74 74 71 71 72 72 72 73 76 76 73 71 73 72 68 69 71 70 70 70 68 68 66 67 66 66 66 63 62 61 62
46 41 41 47 53 51 48 49 55 58 57 59 60 61 63 64 66 72 74 73 72 70 70 71 71 74 72 76 78 77 79 68 75 70 69 70 70 70 68 68 67 67 66 64 64 64 61 62 61
42 41 41 42 48 50 47 45 49 54 57 60 59 61 62 62 63 66 71 69 69 71 67 70 72 75 75 77 70 65 67 67 67 67 67 68 70 70 70 68 68 67 68 66 65 65 64 61 61
38 49 48 45 40 31 46 31 43 48 52 55 58 57 59 61 63 65 69 70 72 74 76 69 70 72 74 76 70 70 77 77 74 68 66 68 69 70 71 69 69 67 68 66 66 65 64 62 63
44 50 46 45 39 34 38 31 39 48 47 50 54 57 56 55 57 59 63 68 72 74 74 71 70 72 75 75 76 74 69 73 66 68 68 66 67 70 70 69 68 68 67 66 66 64 63 63 61
52 45 42 38 33 24 36 35 39 42 45 48 52 52 53 55 57 58 61 64 65 71 74 73 73 72 74 74 74 76 77 72 66 66 67 66 67 68 70 69 68 68 67 66 66 67 66 63 62
43 33 24 23 24 25 38 33 40 47 51 51 47 50 52 53 54 56 57 58 61 63 70 66 68 71 73 73 74 76 76 76 72 68 67 66 66 66 68 68 68 67 67 67 68 67 65 65 63
39 35 23 19 23 27 39 29 36 48 50 51 52 51 53 53 56 56 57 57 60 62 65 71 70 69 71 73 74 75 76 74 69 67 66 67 68 68 68 68 68 68 68 67 68 65 64 63 62
38 32 37 28 28 21 28 37 44 50 48 49 49 52 51 52 54 55 57 58 59 61 64 68 71 71 71 72 74 71 70 66 66 65 67 67 67 68 68 69 68 68 68 68 67 64 63 63 62
41 43 29 22 16 18 27 30 33 41 45 46 47 47 48 51 52 53 55 57 60 62 63 67 72 74 73 72 73 70 69 68 65 66 67 67 67 68 68 68 68 67 67 68 66 65 63 62 61
36 32 33 29 30 24 22 28 40 41 43 43 45 47 47 50 52 53 55 57 59 62 63 65 71 73 72 67 66 65 64 65 66 67 67 68 68 68 69 68 67 67 67 67 66 64 63 62 61
41 36 34 23 26 27 26 30 47 43 44 45 44 47 49 51 51 53 54 55 60 61 63 63 62 68 69 67 65 64 64 66 66 67 67 67 67 69 69 68 67 68 69 67 65 63 63 62 61
MSLP
1009.34 1009.17 1009.12 1009.41 1010.58 1010.95 1010.34 1008.95 1007.52 1006.40 1005.39 1004.34 1003.84 1004.06 1002.81 1001.97 1001.96 1002.44 1001.23 1001.33 1002.30 1003.24 1004.34 1005.09 1005.13 1005.71 1006.30 1006.85 1007.06 1007.52 1007.97 1008.40 1008.90 1009.52 1009.98 1010.17 1010.41 1010.73 1011.03 1011.32 1011.49 1011.59 1011.79 1011.98 1012.26 1012.36 1012.54 1012.66 1012.89
1009.09 1009.23 1009.31 1010.02 1010.97 1010.79 1009.22 1008.06 1007.17 1006.12 1005.36 1003.99 1002.92 1001.69 1001.40 1000.61 1000.89 1001.48 1001.71 1001.75 1001.79 1003.02 1003.94 1004.35 1004.98 1005.39 1006.04 1006.70 1007.00 1007.34 1007.85 1008.49 1008.78 1009.45 1010.05 1010.36 1010.60 1010.74 1010.85 1011.18 1011.53 1011.73 1011.91 1012.17 1012.33 1012.38 1012.52 1012.76 1012.90
1008.82 1009.51 1009.74 1010.45 1010.63 1009.43 1008.46 1006.96 1006.56 1005.45 1004.54 1003.92 1002.85 1001.58 1000.62 999.81 999.99 1000.14 1000.33 1001.66 1002.27 1002.95 1003.81 1003.93 1004.68 1005.28 1006.01 1006.49 1006.92 1007.00 1007.58 1008.01 1008.62 1009.07 1009.81 1010.26 1010.52 1010.80 1010.93 1011.04 1011.28 1011.73 1011.95 1012.27 1012.47 1012.62 1012.67 1012.89 1013.01
1009.32 1009.38 1010.30 1010.57 1009.74 1007.86 1007.45 1006.34 1005.70 1004.94 1003.76 1003.30 1002.64 1001.71 1000.43 999.03 999.34 999.39 999.98 1001.37 1002.31 1003.53 1003.63 1004.07 1004.51 1005.29 1005.99 1006.36 1006.91 1006.95 1007.43 1007.93 1008.34 1008.82 1009.27 1009.92 1010.24 1010.53 1010.80 1011.04 1011.14 1011.47 1011.85 1012.16 1012.52 1012.67 1012.71 1012.91 1012.98
1009.27 1009.69 1010.27 1010.43 1008.57 1007.16 1006.63 1006.01 1005.34 1004.89 1004.50 1003.70 1002.86 1001.60 1000.55 999.44 999.59 999.59 1000.31 1001.21 1002.03 1003.00 1003.67 1004.06 1004.42 1005.16 1005.84 1006.15 1006.81 1006.92 1007.23 1007.80 1008.15 1008.61 1009.08 1009.61 1010.12 1010.39 1010.60 1010.86 1011.06 1011.41 1011.83 1012.16 1012.53 1012.80 1012.96 1013.01 1012.90
1009.37 1009.89 1010.71 1009.85 1007.50 1006.59 1006.07 1005.55 1004.93 1004.63 1004.19 1003.56 1002.51 1001.45 1000.14 999.73 1000.35 1000.35 1000.33 1000.90 1001.68 1002.41 1002.90 1003.68 1004.43 1004.92 1005.58 1006.12 1006.61 1006.76 1007.00 1007.50 1007.91 1008.36 1008.90 1009.30 1009.75 1010.10 1010.36 1010.67 1010.92 1011.23 1011.60 1011.90 1012.32 1012.73 1013.01 1013.18 1012.98
1009.36 1009.87 1010.03 1009.02 1007.22 1006.43 1005.69 1005.03 1004.70 1004.45 1004.19 1003.35 1002.47 1001.71 1000.82 1000.39 1000.49 1001.44 1002.14 1002.26 1002.76 1003.14 1003.36 1003.73 1004.38 1005.04 1005.59 1006.27 1006.65 1006.68 1006.79 1007.27 1007.57 1007.95 1008.53 1008.97 1009.43 1009.80 1010.12 1010.39 1010.71 1011.02 1011.47 1011.82 1012.10 1012.54 1012.95 1013.21 1013.04
1009.30 1009.71 1009.85 1008.66 1007.23 1006.32 1005.55 1005.20 1004.69 1004.43 1003.86 1003.38 1002.71 1002.55 1001.99 1001.19 1001.19 1001.85 1002.62 1003.23 1003.43 1003.98 1003.96 1004.18 1004.70 1005.28 1005.91 1006.47 1006.79 1007.00 1006.92 1007.05 1007.32 1007.59 1008.12 1008.62 1009.10 1009.52 1009.89 1010.24 1010.55 1010.79 1011.08 1011.48 1011.96 1012.19 1012.72 1013.13 1013.22
1008.82 1009.75 1009.28 1008.13 1007.26 1006.46 1005.56 1005.56 1004.62 1004.28 1004.03 1003.75 1003.39 1003.09 1002.25 1001.59 1001.69 1002.33 1002.90 1003.80 1004.10 1004.33 1004.26 1004.36 1004.88 1005.45 1005.89 1006.42 1006.74 1007.13 1007.37 1007.31 1007.48 1007.64 1007.88 1008.48 1008.95 1009.27 1009.60 1009.90 1010.43 1010.66 1010.81 1011.16 1011.57 1011.85 1012.37 1012.76 1013.07
1009.25 1009.27 1008.60 1007.47 1006.82 1006.44 1005.48 1005.58 1005.25 1004.52 1003.81 1003.66 1003.18 1002.80 1002.39 1002.31 1002.63 1002.87 1002.78 1003.32 1003.89 1004.21 1004.36 1004.31 1004.78 1005.41 1005.90 1006.25 1006.68 1006.97 1007.42 1007.47 1007.54 1007.67 1007.79 1008.26 1008.74 1009.00 1009.36 1009.55 1010.07 1010.43 1010.68 1011.04 1011.25 1011.45 1011.88 1012.37 1012.87
1008.76 1008.52 1008.39 1007.61 1006.81 1006.64 1005.60 1005.36 1005.38 1004.84 1003.76 1004.12 1003.70 1003.12 1002.57 1002.55 1002.70 1003.27 1003.76 1003.63 1002.30 1002.92 1004.17 1004.28 1004.65 1005.24 1005.57 1006.12 1006.61 1006.85 1007.10 1007.45 1007.63 1007.64 1007.82 1008.01 1008.60 1008.94 1009.36 1009.52 1009.78 1010.31 1010.44 1011.01 1011.12 1011.28 1011.74 1012.07 1012.66
1009.08 1008.73 1008.74 1008.03 1006.94 1006.74 1005.98 1005.68 1005.19 1004.85 1003.67 1003.96 1003.82 1003.35 1002.95 1002.76 1002.66 1002.84 1003.17 1003.61 1003.84 1003.48 1003.35 1004.08 1004.49 1004.94 1005.40 1005.91 1006.23 1006.62 1006.87 1007.20 1007.60 1007.56 1007.69 1008.20 1008.60 1008.85 1009.28 1009.39 1009.50 1010.03 1010.36 1010.73 1010.88 1011.05 1011.44 1011.80 1012.23
1009.43 1009.17 1008.75 1008.03 1007.75 1007.31 1006.64 1005.28 1005.37 1003.90 1003.57 1003.88 1003.77 1003.46 1003.25 1003.01 1003.04 1002.47 1002.44 1002.61 1002.99 1003.55 1004.20 1003.49 1004.11 1004.18 1004.79 1005.27 1005.62 1005.90 1006.23 1006.77 1006.87 1007.37 1007.57 1007.96 1008.30 1008.61 1008.90 1009.33 1009.42 1009.75 1010.25 1010.41 1010.92 1010.98 1011.29 1011.67 1011.94
1009.98 1009.68 1009.07 1008.33 1007.93 1007.24 1006.62 1005.47 1005.34 1002.09 1003.92 1003.49 1003.38 1003.27 1003.08 1003.01 1003.01 1002.58 1002.26 1002.08 1002.43 1002.54 1002.47 1004.05 1003.23 1003.85 1004.50 1004.65 1005.08 1005.36 1005.58 1006.05 1006.52 1006.93 1007.10 1007.59 1007.94 1008.34 1008.61 1009.06 1009.21 1009.57 1009.95 1009.78 1010.36 1010.75 1011.02 1011.39 1011.79
1010.16 1010.02 1009.39 1008.73 1007.67 1006.88 1006.41 1005.50 1004.46 1004.03 1003.47 1003.38 1003.27 1003.23 1003.09 1002.85 1002.55 1002.83 1002.61 1002.61 1002.38 1001.94 1002.07 1002.44 1003.42 1003.32 1004.00 1004.15 1004.50 1004.97 1005.29 1005.73 1006.06 1006.20 1006.46 1007.04 1007.54 1008.08 1008.35 1008.68 1008.93 1009.13 1009.49 1009.35 1010.00 1010.68 1010.81 1011.30 1011.62
1010.59 1010.62 1009.98 1008.52 1007.86 1007.06 1006.83 1004.96 1004.63 1004.33 1003.91 1003.09 1003.06 1003.34 1003.00 1002.97 1002.67 1002.44 1002.41 1002.08 1001.95 1001.54 1001.91 1001.88 1002.13 1003.07 1003.21 1003.67 1003.72 1004.41 1004.65 1004.87 1005.38 1005.70 1005.80 1006.38 1006.97 1007.43 1007.84 1008.19 1008.51 1008.72 1009.27 1009.27 1009.68 1010.37 1010.62 1011.17 1011.34
1011.56 1011.55 1010.73 1009.48 1007.99 1007.55 1007.07 1006.28 1005.42 1004.85 1004.81 1004.42 1003.26 1002.91 1003.43 1003.40 1003.30 1002.88 1002.68 1002.00 1001.50 1001.21 1001.29 1001.55 1001.90 1002.24 1002.61 1002.89 1003.38 1003.77 1004.07 1004.29 1004.62 1005.08 1005.45 1005.65 1005.91 1006.61 1007.02 1007.49 1008.11 1008.38 1008.73 1008.87 1009.45 1010.04 1010.20 1011.02 1011.09
1012.05 1011.73 1011.09 1010.18 1009.08 1008.27 1007.49 1006.27 1006.24 1005.62 1005.33 1004.66 1004.29 1003.08 1001.93 1003.03 1003.25 1002.80 1002.49 1002.40 1001.73 1001.15 1000.91 1001.19 1001.73 1001.65 1001.80 1002.01 1002.77 1003.46 1003.72 1003.84 1004.10 1004.39 1004.55 1005.12 1005.51 1005.76 1006.39 1006.82 1007.62 1008.28 1008.40 1008.56 1009.16 1009.56 1009.84 1010.30 1010.47
1011.71 1011.56 1011.13 1010.44 1009.52 1008.91 1007.89 1006.40 1006.14 1005.84 1005.50 1005.23 1004.85 1004.36 1003.80 1002.56 1001.02 1002.17 1001.98 1001.63 1001.94 1001.62 1001.25 1000.68 1001.19 1001.32 1001.85 1001.93 1002.64 1002.98 1003.07 1003.39 1003.74 1003.71 1003.67 1004.10 1004.71 1005.10 1005.54 1006.19 1007.12 1007.48 1007.73 1007.72 1008.51 1009.15 1009.68 1009.98 1010.17
1011.38 1011.40 1011.02 1010.41 1009.95 1009.60 1008.66 1006.78 1006.44 1005.88 1005.38 1005.19 1005.09 1004.70 1004.11 1003.67 1002.50 1000.22 1001.52 1001.75 1001.47 1001.62 1001.67 1001.17 1000.76 1000.44 1000.84 1001.39 1001.65 1001.27 1001.31 1002.07 1002.27 1002.69 1003.06 1003.50 1003.86 1004.32 1004.88 1005.98 1006.50 1006.68 1006.87 1007.59 1008.25 1008.63 1009.20 1009.42 1009.78
1011.15 1011.30 1011.09 1011.00 1010.39 1009.83 1009.25 1006.65 1006.54 1005.80 1005.38 1005.11 1005.00 1004.77 1004.54 1004.16 1003.47 1002.63 1001.85 1001.41 1001.06 1000.71 1001.29 1001.07 1000.50 1000.00 999.57 1000.01 1001.31 1001.82 1001.58 1001.87 1002.27 1002.45 1002.49 1002.60 1003.04 1003.56 1004.46 1005.24 1005.59 1005.89 1006.42 1007.18 1007.61 1008.12 1008.56 1009.14 1009.48
1011.15 1011.01 1011.10 1011.14 1011.19 1011.18 1010.16 1007.03 1006.58 1006.28 1005.79 1005.43 1005.21 1005.05 1004.59 1004.09 1003.66 1003.25 1002.49 1001.49 1000.94 1000.46 1000.09 1000.10 1000.10 999.49 999.08 999.07 1000.07 1000.95 1000.55 1000.81 1000.96 1001.07 1001.48 1002.14 1002.62 1002.91 1003.76 1004.29 1004.87 1005.35 1006.01 1006.54 1006.88 1007.46 1008.01 1008.38 1009.01
1010.93 1010.89 1011.24 1011.50 1011.69 1011.59 1011.05 1010.22 1005.84 1005.92 1005.99 1005.80 1005.30 1005.19 1005.15 1004.83 1004.27 1003.68 1003.04 1001.98 1000.97 1000.07 999.65 999.15 998.97 998.71 998.49 998.56 998.73 999.72 1000.29 1000.65 1000.86 1001.28 1001.67 1002.28 1002.34 1002.66 1003.11 1003.49 1004.50 1004.99 1005.43 1005.80 1006.36 1007.27 1007.71 1007.94 1008.42
1010.65 1011.31 1011.81 1012.05 1012.48 1012.22 1011.02 1010.27 1005.05 1006.02 1005.75 1005.75 1005.63 1005.52 1005.42 1004.88 1003.97 1003.19 1002.52 1001.89 1000.80 1000.06 999.21 998.74 998.40 998.18 998.04 998.04 998.04 998.36 998.97 999.91 1000.73 1001.27 1001.61 1002.15 1002.30 1002.35 1002.69 1003.09 1003.89 1004.18 1004.89 1005.44 1006.13 1006.57 1006.99 1007.68 1007.86
1011.42 1012.29 1013.24 1013.45 1013.39 1012.52 1011.16 1010.58 1006.72 1006.26 1005.85 1005.72 1005.87 1005.63 1005.14 1004.72 1004.24 1003.12 1002.08 1001.47 1000.57 999.75 998.90 998.33 997.93 997.26 997.21 997.21 997.39 997.79 998.07 998.74 999.74 1000.33 1000.76 1001.54 1001.88 1002.04 1002.32 1002.52 1003.26 1003.76 1004.55 1005.03 1005.71 1006.35 1006.67 1007.27 1007.66
1011.79 1012.78 1014.00 1014.08 1013.99 1012.92 1011.57 1009.99 1006.81 1005.94 1005.70 1005.60 1005.71 1005.50 1005.07 1004.73 1004.16 1003.44 1002.23 1001.37 1000.25 999.23 998.25 997.49 997.03 996.49 996.60 996.62 996.63 996.90 997.42 998.05 998.99 999.52 1000.12 1000.55 1000.88 1001.13 1001.65 1001.99 1002.62 1003.24 1004.08 1004.86 1005.46 1006.03 1006.46 1006.89 1007.35
1011.85 1012.62 1013.01 1013.92 1013.93 1013.41 1011.50 1009.15 1007.29 1005.73 1005.68 1005.47 1005.34 1005.21 1004.84 1004.34 1003.60 1002.87 1002.17 1001.01 999.88 998.80 997.67 996.79 995.69 995.35 995.32 995.36 995.95 996.17 996.57 997.36 998.25 998.76 999.61 1000.01 1000.45 1000.78 1001.42 1001.60 1002.44 1002.78 1003.83 1004.48 1005.10 1005.62 1006.36 1006.89 1007.20
1011.47 1012.15 1013.32 1014.44 1014.35 1013.22 1011.14 1009.37 1007.49 1006.20 1005.57 1005.74 1005.22 1004.92 1004.51 1003.94 1003.16 1002.08 1001.32 1000.38 999.15 998.07 996.67 995.44 994.34 993.81 993.90 994.43 995.05 995.29 995.64 996.98 997.59 998.26 999.15 999.61 1000.15 1000.50 1001.06 1001.85 1002.26 1002.64 1003.67 1004.16 1004.84 1005.49 1006.20 1006.81 1007.13
1011.84 1012.33 1013.20 1014.03 1013.96 1013.05 1011.21 1008.53 1006.50 1006.10 1005.86 1005.36 1005.08 1004.77 1004.64 1003.69 1002.65 1001.52 1000.40 999.76 998.61 997.16 995.93 994.02 992.64 992.38 992.76 993.40 994.25 994.34 995.55 996.40 996.98 997.82 998.55 999.09 999.66 999.96 1000.84 1001.38 1002.00 1002.69 1003.45 1004.02 1004.80 1005.53 1006.10 1006.66 1007.06
1011.61 1012.18 1012.88 1013.62 1013.41 1012.56 1011.13 1007.35 1006.06 1005.70 1005.25 1004.99 1004.77 1004.60 1004.04 1003.21 1002.38 1001.12 1000.00 999.06 997.47 995.90 994.50 992.85 991.99 991.81 991.88 992.47 993.34 994.30 995.10 995.89 996.74 997.52 998.01 998.66 999.10 999.66 1000.30 1001.06 1001.99 1002.61 1003.19 1003.86 1004.70 1005.44 1005.89 1006.51 1006.90
Wind_Speed
6 6 1 4 4 5 4 8 2 8 8 4 4 6 13 20 11 9 2 13 16 19 17 18 22 20 20 20 21 20 19 18 18 16 16 16 16 16 16 14 14 14 13 12 11 11 9 8 7
2 4 4 3 4 1 5 5 4 6 6 11 11 10 4 7 5 6 10 9 22 20 17 18 22 22 21 20 20 21 20 19 19 17 16 15 15 15 16 15 13 13 12 11 11 11 10 8 7
5 4 4 3 4 8 4 4 4 8 9 6 7 7 6 6 3 14 5 15 18 19 17 17 23 22 21 20 20 21 20 20 19 18 16 15 15 14 14 14 13 12 11 11 10 10 9 8 7
1 1 4 2 13 5 3 6 6 12 12 4 5 7 9 2 7 9 18 19 20 15 16 19 23 21 20 20 20 21 20 19 19 18 17 15 15 14 13 13 13 12 11 10 10 9 9 8 7
1 2 3 3 13 2 3 3 4 8 6 8 7 8 6 4 5 14 21 21 22 18 14 17 23 21 20 20 20 21 21 20 19 18 18 17 15 15 14 14 13 12 11 10 10 9 8 7 7
1 3 1 7 19 1 3 3 3 2 6 15 6 7 6 3 7 13 19 21 20 19 17 16 20 21 20 20 20 21 21 21 20 19 18 17 17 16 15 14 13 12 11 10 10 9 8 7 6
4 4 5 5 9 2 2 3 2 2 6 8 8 7 9 1 8 7 4 6 10 13 14 13 14 15 18 18 18 19 21 21 21 20 19 18 17 17 15 14 13 12 10 10 10 9 9 8 8
4 4 4 5 9 3 1 4 5 1 8 7 6 6 10 3 8 10 9 7 8 5 8 9 10 9 9 9 16 16 19 20 20 20 19 18 18 16 15 13 13 13 12 12 11 10 10 9 8
3 2 5 5 4 3 4 6 2 4 3 6 7 4 8 4 10 9 9 5 5 5 5 7 9 8 7 6 10 13 17 17 17 17 19 15 8 9 11 11 13 13 13 12 12 11 11 10 10
4 5 8 4 3 6 10 4 9 7 14 6 10 9 7 7 7 4 9 11 7 8 7 9 10 9 7 7 6 6 6 6 7 8 10 7 6 6 8 10 14 14 13 12 12 12 12 11 4
3 6 2 5 5 6 11 10 10 8 15 5 11 10 9 4 2 3 4 9 19 13 8 11 11 9 11 9 5 4 4 3 4 6 6 6 5 5 4 3 4 4 10 4 7 6 4 5 4
4 4 3 2 7 9 13 11 14 17 20 7 8 10 6 7 5 3 6 4 6 10 15 13 12 12 11 6 7 7 6 5 5 6 6 5 4 5 5 4 5 4 3 5 5 3 5 5 6
3 3 6 7 6 7 11 14 15 24 17 12 9 9 8 8 9 6 5 5 8 8 9 14 13 14 13 11 8 8 8 7 7 5 6 5 5 6 5 4 4 4 4 5 4 4 5 5 6
3 3 6 4 6 5 7 13 5 33 4 9 8 8 9 9 9 6 7 7 5 11 14 10 15 12 10 12 9 8 8 7 6 6 7 8 6 5 5 4 5 5 6 5 4 5 5 5 4
2 5 6 5 4 6 7 13 21 18 10 9 12 6 8 9 9 9 9 7 11 9 10 14 13 13 13 11 8 7 6 6 7 7 8 10 8 6 6 5 4 7 6 6 4 4 4 4 4
5 5 4 5 5 6 6 16 10 6 8 15 11 8 8 9 10 9 9 9 9 6 8 11 13 13 14 13 9 8 7 7 7 6 7 10 9 8 7 5 6 5 5 4 5 4 4 4 4
6 1 1 6 6 5 4 4 7 12 6 9 13 13 7 6 8 10 7 9 8 9 10 9 12 14 15 12 8 9 9 8 7 5 6 10 11 11 9 7 6 5 5 5 6 3 4 3 4
4 2 3 6 6 7 12 15 7 7 8 9 7 12 17 11 8 6 8 6 10 9 9 8 7 12 15 11 8 4 4 6 5 8 9 9 8 11 9 6 6 6 5 5 4 4 4 4 5
2 3 5 6 7 7 11 18 14 7 5 7 8 10 9 17 14 5 7 8 6 8 10 9 8 9 8 8 7 5 9 8 6 7 10 10 9 10 9 6 7 8 8 8 9 4 5 4 3
3 2 4 6 6 10 9 23 18 12 6 7 7 8 10 9 13 22 11 7 8 7 11 10 10 10 7 6 8 5 8 4 7 6 6 8 8 8 8 9 9 9 5 6 7 6 3 3 5
2 3 4 7 7 8 8 23 10 4 3 5 6 6 6 8 11 13 15 13 10 10 8 12 14 14 13 15 3 1 3 2 3 3 4 6 7 9 10 11 7 7 6 7 7 7 7 4 3
3 4 5 9 6 3 3 16 6 3 8 6 7 7 10 11 10 10 17 17 15 14 13 9 12 13 13 15 9 9 10 12 7 4 3 5 8 9 11 9 8 7 6 6 6 5 4 5 4
8 6 6 6 6 3 4 6 3 7 7 9 8 8 7 7 10 12 13 16 19 16 13 9 11 11 13 14 17 12 7 5 2 2 6 5 5 8 10 10 9 8 6 6 7 5 5 3 4
3 4 4 4 2 2 9 8 17 4 4 4 4 5 6 10 14 14 13 13 15 16 15 11 12 14 14 12 16 18 19 11 5 5 5 4 4 6 9 10 9 8 6 6 5 6 7 6 4
6 6 5 5 3 5 2 3 15 12 10 5 3 8 9 9 11 15 13 13 16 17 18 10 10 15 15 15 16 18 17 16 13 9 6 6 4 4 8 9 9 6 6 6 6 5 6 6 4
5 7 6 6 5 10 10 7 9 5 5 4 5 9 10 11 12 13 15 13 17 17 19 18 14 16 15 17 18 18 17 9 7 8 5 6 6 6 9 9 9 8 7 6 6 4 4 5 5
4 4 4 2 2 1 7 9 10 9 7 5 8 8 10 14 17 17 14 19 17 17 20 21 17 16 15 18 17 15 12 9 10 9 7 6 6 6 9 9 10 8 7 8 8 5 5 5 5
6 3 3 3 3 6 6 7 10 9 11 7 12 11 13 17 19 20 17 16 15 17 20 24 22 20 18 18 17 13 13 12 8 8 9 9 7 8 9 9 8 9 7 8 7 5 5 6 3
3 2 1 3 4 4 5 6 7 8 8 12 10 9 13 19 22 21 21 17 14 17 19 20 15 18 14 10 9 10 10 10 10 9 9 10 10 10 11 10 10 10 9 8 7 6 6 6 5
6 6 4 4 5 5 3 14 7 9 9 10 9 10 14 18 23 23 20 16 17 20 20 15 9 12 11 10 11 8 9 10 9 9 10 11 11 11 12 11 10 10 11 9 8 8 6 7 6
Wind_Direction
327 309 277 43 49 68 247 255 275 311 338 309 286 188 225 218 185 202 319 152 132 150 162 169 161 161 162 161 152 147 144 142 140 140 141 141 142 146 145 148 151 154 155 154 155 150 149 144 140
19 295 39 87 99 192 256 250 298 259 278 292 284 308 180 210 181 121 119 182 150 152 166 165 166 165 165 165 157 151 150 149 146 147 148 150 150 154 154 157 159 161 160 163 164 160 155 151 146
41 251 93 130 168 219 224 213 48 296 274 277 293 259 251 213 155 163 164 151 145 154 170 165 166 166 168 164 164 156 156 154 153 152 154 157 159 162 162 164 164 169 167 171 173 169 159 160 158
175 335 40 98 243 230 219 311 354 325 323 315 295 318 310 261 172 179 137 146 147 161 168 169 163 165 170 166 171 160 158 158 156 158 159 166 170 170 171 173 170 175 178 178 182 178 172 173 168
60 77 109 245 262 226 248 264 321 294 286 297 305 279 263 356 16 142 147 154 155 164 169 166 164 166 172 171 175 165 162 164 163 164 167 172 177 179 180 181 178 179 186 186 190 189 187 187 174
75 93 76 225 247 38 295 264 249 312 288 304 303 312 259 73 122 170 156 163 163 163 160 163 167 168 174 177 177 172 166 168 169 169 173 177 182 187 186 186 184 185 193 191 194 192 195 200 186
143 103 233 263 265 301 249 282 257 301 305 303 304 319 299 333 114 96 96 119 153 157 154 155 163 174 177 181 183 176 171 174 173 173 178 181 187 190 190 188 189 191 197 196 194 195 200 207 203
148 127 255 251 262 300 233 345 295 29 299 306 332 5 316 323 120 105 83 75 92 135 145 148 153 164 171 186 188 185 179 178 179 176 180 186 191 191 192 189 194 197 198 200 198 197 202 212 214
135 123 226 236 265 146 312 1 227 294 286 316 329 4 327 45 109 107 106 76 92 121 139 139 156 159 163 171 188 190 195 186 184 184 184 186 188 189 194 189 199 206 205 205 201 200 204 211 219
178 167 224 241 254 325 291 317 303 332 322 314 325 342 24 61 58 136 163 171 166 175 183 168 161 169 161 182 188 176 197 197 194 194 186 184 177 179 187 190 204 212 212 211 207 203 204 214 209
195 230 218 289 319 328 301 307 306 313 290 331 308 314 339 51 343 135 281 227 193 181 178 184 178 178 175 186 179 184 181 187 209 194 190 172 173 179 186 169 196 194 215 205 211 203 197 190 198
258 235 273 293 313 306 286 310 286 282 272 296 307 295 300 309 311 258 197 239 245 193 191 185 187 186 189 184 183 189 190 189 204 208 184 179 172 173 186 189 184 187 190 194 196 180 188 190 202
217 340 349 333 311 284 288 287 281 274 278 285 273 289 289 281 266 268 251 257 202 209 235 191 189 191 192 192 189 188 188 196 199 191 190 184 183 190 174 192 179 192 185 193 202 187 189 193 205
304 277 290 292 264 243 259 282 306 274 11 296 289 274 271 249 254 286 272 278 249 220 186 220 189 193 192 196 196 201 189 195 187 188 192 199 198 184 182 186 193 198 208 191 190 194 193 204 194
285 333 338 219 233 252 223 260 247 278 311 283 294 288 282 258 258 230 235 231 236 232 209 185 208 184 191 194 194 193 198 188 199 200 183 197 194 181 180 184 189 210 208 179 170 197 163 191 203
8 45 21 284 315 249 172 261 289 310 332 311 332 312 300 276 258 257 225 234 213 222 205 210 190 198 192 198 191 198 191 187 205 199 181 186 186 178 180 185 206 194 193 171 176 182 170 205 201
11 68 279 303 288 271 209 298 316 321 332 315 312 311 315 323 325 302 275 251 235 230 220 197 192 191 198 192 188 202 196 196 200 186 191 188 183 184 186 193 210 182 178 178 183 189 170 181 217
283 333 267 268 285 300 292 285 256 268 283 285 301 311 316 300 294 275 296 247 265 248 218 212 206 205 196 193 189 195 199 210 188 206 194 180 193 187 187 186 191 190 175 171 169 179 173 177 212
260 272 262 275 288 324 300 300 305 276 256 281 287 290 291 302 309 323 307 302 216 266 278 222 190 213 200 193 196 200 207 210 214 211 196 186 185 183 182 190 187 188 192 190 188 171 176 211 176
174 186 277 270 343 311 301 290 294 291 257 235 255 281 291 300 315 321 329 317 306 235 227 252 230 215 184 209 229 217 197 197 216 195 185 196 180 172 175 190 199 191 177 170 175 173 157 189 166
357 262 258 275 294 253 279 278 264 277 279 271 269 268 290 283 294 300 309 312 306 302 235 229 226 226 209 199 145 55 60 85 153 188 195 206 180 178 183 191 185 178 178 189 181 181 169 169 188
312 253 284 306 338 296 46 288 187 216 260 279 288 268 265 277 304 311 311 304 300 292 295 232 220 217 213 195 185 210 207 206 216 188 129 183 194 179 182 181 183 174 181 168 178 174 171 142 161
235 248 264 269 268 301 207 266 151 315 283 260 273 298 330 328 315 307 306 305 300 294 285 277 249 233 224 204 196 199 197 229 136 138 166 189 186 182 179 172 174 173 174 175 162 161 172 172 151
289 315 317 330 75 260 216 194 285 219 257 320 281 306 308 306 303 298 294 298 298 297 280 268 259 241 224 208 206 199 206 190 160 176 180 182 177 174 173 164 173 166 159 164 178 183 170 177 147
55 51 324 330 335 228 297 301 261 298 296 236 258 277 278 270 278 288 295 302 302 296 292 261 245 245 231 213 208 211 210 201 196 185 173 165 154 169 178 162 163 156 166 169 158 168 170 167 166
241 167 166 259 254 279 293 236 262 235 213 228 238 263 274 286 287 285 290 288 290 286 291 277 244 229 222 214 212 208 207 192 186 176 168 183 184 172 170 163 160 159 158 163 162 169 157 155 168
262 219 207 205 281 7 234 271 299 272 247 292 292 295 298 305 308 301 296 294 289 285 289 279 252 229 215 209 210 201 184 160 183 178 164 164 167 165 169 159 166 149 157 168 163 151 152 155 167
174 191 277 3 287 265 274 267 246 277 280 308 298 299 311 311 305 301 294 287 285 291 287 283 251 231 214 203 201 193 179 188 163 149 170 172 164 158 154 159 154 137 153 146 144 132 141 158 166
309 304 181 158 179 243 282 247 224 265 269 267 272 297 302 312 306 300 297 287 284 298 289 275 243 216 208 186 186 167 168 159 150 163 172 173 162 160 160 159 149 149 149 141 138 142 155 162 167
224 235 178 137 264 241 255 273 250 241 253 271 270 285 316 328 311 301 294 275 301 311 296 283 225 203 198 180 164 159 141 145 157 173 174 160 165 165 159 147 151 151 152 147 150 163 164 172 174